User: anonymous   Login
Location: Unspecified
(0.0000°N, 0.0000°E)
Time: 08:27:42
(UTC+00:00)
Language:

CHALLENGER - Orbit

View from above orbital plane
View from above orbital plane
View from above satellite
View from above satellite

Ground track
Ground track

The orbit data is extracted from the following two-line orbital elements,

1 42723U 98067MC  18267.27552317 +.00126728 +00000-0 +53519-3 0  9996
2 42723 051.6374 200.8925 0001925 180.2769 179.8234 15.84523783076319
Epoch (UTC): 24 September 2018 06:36:45
Eccentricity: 0.0001925
inclination: 51.6374°
perigee height: 316 km
apogee height: 319 km
right ascension of ascending node: 200.8925°
argument of perigee: 180.2769°
revolutions per day: 15.84523783
mean anomaly at epoch: 179.8234°
orbit number at epoch: 7631

The dashed part of the orbit path shows where the satellite is in the earth's shadow,  

DLR